Weather History for Fort Rucker / Ozark, AL

Change the Weather History Date:

Friday, October 14, 2011

  Actual Average (KDHN) Record (KDHN)
Temperature  
Mean Temperature 68 °F 68 °F  
Max Temperature 84 °F 80 °F 89 °F (1954)
Min Temperature 52 °F 56 °F 41 °F (2006)
Degree Days  
Heating Degree Days 0 1  
Month to date heating degree days 9  
Since 1 July heating degree days 11  
Cooling Degree Days 3 4  
Month to date cooling degree days 81  
Year to date cooling degree days 2309  
Growing Degree Days 18 (Base 50)    
Moisture  
Dew Point 50 °F    
Average Humidity 65    
Maximum Humidity 100    
Minimum Humidity 22    
Precipitation  
Precipitation 0.00 in 0.11 in 0.99 in (1964)
Month to date precipitation 1.48  
Year to date precipitation 43.46  
Sea Level Pressure  
Sea Level Pressure 29.91 in    
Wind  
Wind Speed 2 mph (North)    
Max Wind Speed 10 mph    
Max Gust Speed -    
Visibility 9 miles    
Events      
T = Trace of Precipitation, MM = Missing Value Source: NWS Daily Summary

Daily Weather History Graph

Daily Weather History Graph

Search for Another Location

Airport:

Trip Planner

Search our weather history database for the weather conditions in past years. The results will help you decide how hot, cold, wet, or windy it might be!

Date:

Astronomy

Oct. 14, 2011 Rise Set
Actual Time 6:45 AM CDT 6:12 PM CDT
Civil Twilight 6:20 AM CDT 6:36 PM CDT
Nautical Twilight 5:52 AM CDT 7:05 PM CDT
Astronomical Twilight 5:24 AM CDT 7:33 PM CDT
Moon 7:39 PM CDT (10/14) 9:00 AM CDT (10/14)
Length of Visible Light 12h 16m
Length of Day
11h 27m
Waning Gibbous, 94% of the Moon is Illuminated
Oct 14
Waning Gibbous
Oct 19
Last Quarter
Oct 26
New
Nov 2
First Quarter
Nov 10
Full

Hourly Weather History & Observations

Time (CDT) Temp. Dew Point Humidity Pressure Visibility Wind Dir Wind Speed Gust Speed Precip Events Conditions
12:53 AM 60.1 °F 57.0 °F 90% 29.82 in 10.0 mi Calm Calm - N/A   Clear
1:53 AM 57.0 °F 55.0 °F 93% 29.83 in 9.0 mi Calm Calm - N/A   Clear
2:53 AM 55.9 °F 55.0 °F 97% 29.84 in 6.0 mi Calm Calm - N/A   Clear
3:53 AM 54.0 °F 53.1 °F 97% 29.85 in 7.0 mi Calm Calm - N/A   Clear
4:37 AM 55.4 °F 53.6 °F 94% 29.86 in 1.5 mi Calm Calm - N/A   Clear
4:53 AM 53.1 °F 53.1 °F 100% 29.86 in 4.0 mi Calm Calm - N/A   Clear
5:53 AM 52.0 °F 51.1 °F 97% 29.88 in 6.0 mi Calm Calm - N/A   Clear
6:53 AM 52.0 °F 51.1 °F 97% 29.89 in 7.0 mi NNW 4.6 mph - N/A   Clear
7:53 AM 62.1 °F 57.0 °F 84% 29.91 in 10.0 mi Variable 4.6 mph - N/A   Clear
8:53 AM 68.0 °F 55.9 °F 65% 29.94 in 10.0 mi North 6.9 mph - N/A   Clear
9:53 AM 73.0 °F 53.1 °F 49% 29.95 in 10.0 mi NNE 6.9 mph - N/A   Clear
10:53 AM 77.0 °F 50.0 °F 39% 29.95 in 10.0 mi North 8.1 mph - N/A   Unknown
11:53 AM 80.1 °F 46.9 °F 31% 29.94 in 10.0 mi NNW 10.4 mph - N/A   Clear
12:53 PM 82.0 °F 43.0 °F 25% 29.92 in 10.0 mi NW 9.2 mph - N/A   Clear
1:53 PM 82.9 °F 41.0 °F 23% 29.90 in 10.0 mi North 10.4 mph - N/A   Clear
2:53 PM 84.0 °F 41.0 °F 22% 29.89 in 10.0 mi North 5.8 mph - N/A   Clear
3:53 PM 84.0 °F 41.0 °F 22% 29.90 in 10.0 mi North 4.6 mph - N/A   Clear
4:53 PM 82.0 °F 42.1 °F 24% 29.91 in 10.0 mi North 5.8 mph - N/A   Clear
5:53 PM 78.1 °F 44.1 °F 30% 29.92 in 10.0 mi NNW 3.5 mph - N/A   Clear
6:53 PM 66.9 °F 48.0 °F 51% 29.94 in 10.0 mi Calm Calm - N/A   Clear
7:53 PM 62.1 °F 50.0 °F 65% 29.96 in 10.0 mi Calm Calm - N/A   Clear
8:53 PM 59.0 °F 51.1 °F 75% 29.97 in 10.0 mi Calm Calm - N/A   Clear
9:53 PM 55.9 °F 51.1 °F 84% 29.99 in 10.0 mi Calm Calm - N/A   Clear
10:53 PM 55.0 °F 50.0 °F 83% 30.01 in 10.0 mi Calm Calm - N/A   Clear
11:53 PM 52.0 °F 50.0 °F 93% 30.02 in 10.0 mi Calm Calm - N/A   Clear